Weather reports worldwide

Advertisment
Poitiers, France (7335): temperature & dewpoint: 10.09.2019 05:00:00 - 16.09.2019 05:00:00 (CEST)Poitiers, France (7335): temperature 5cm: 10.09.2019 05:00:00 - 16.09.2019 05:00:00 (CEST)Poitiers, France (7335): temperature -20cm & temperature -100cm: 10.09.2019 05:00:00 - 16.09.2019 05:00:00 (CEST)Poitiers, France (7335): wind speed & gusts: 10.09.2019 05:00:00 - 16.09.2019 05:00:00 (CEST)Poitiers, France (7335): wind direction: 10.09.2019 05:00:00 - 16.09.2019 05:00:00 (CEST)Poitiers, France (7335): reduced air pressure: 10.09.2019 05:00:00 - 16.09.2019 05:00:00 (CEST)Poitiers, France (7335): visibility: 10.09.2019 05:00:00 - 16.09.2019 05:00:00 (CEST)Poitiers, France (7335): sunshine duration: 10.09.2019 05:00:00 - 16.09.2019 05:00:00 (CEST)Poitiers, France (7335): precipitation: 10.09.2019 05:00:00 - 16.09.2019 05:00:00 (CEST)
Date & Time tt [°C] td [°C] tt 5cm [°C] tt -20cm [°C] tt -100cm [°C] ff [km/h] ff [kn] fx [km/h] fx [kn] dd ppp [hPa] vv [km] sd [min] rr [mm]
16.09.2019 05:00:00 - - - - - - - - - - - - - -
16.09.2019 04:00:00 16,8 10,4 14,1 20,7 18,7 6 4 12 6 NNW 1020,8 60 0 0,0
16.09.2019 03:00:00 17,7 10,6 14,0 20,8 18,7 7 4 13 7 N 1021,0 60 0 0,0
16.09.2019 02:00:00 18,4 10,7 14,7 20,8 18,7 9 5 12 7 N 1021,2 60 0 0,0
16.09.2019 01:00:00 19,9 10,3 16,9 20,9 18,7 8 5 14 7 NNE 1021,2 60 0 0,0
16.09.2019 00:00:00 20,4 10,8 18,0 20,9 18,7 10 5 14 8 N 1021,4 60 0 0,0
15.09.2019 23:00:00 21,8 10,9 18,6 20,9 18,7 9 5 13 7 NNE 1021,4 60 0 0,0
15.09.2019 22:00:00 22,6 11,6 20,5 20,9 18,7 11 6 17 9 N 1021,0 60 0 0,0
15.09.2019 21:00:00 23,9 12,2 21,6 20,8 18,7 12 7 16 9 N 1020,6 60 0 0,0
15.09.2019 20:00:00 27,3 12,5 26,6 20,8 18,7 13 7 21 11 N 1020,0 60 48 0,0
15.09.2019 19:00:00 30,0 12,4 32,3 20,6 18,7 13 7 20 11 NNE 1019,9 54 60 0,0
15.09.2019 18:00:00 31,1 12,5 36,6 20,4 18,7 12 6 23 12 N 1020,0 60 60 0,0
15.09.2019 17:00:00 31,5 12,8 38,5 20,2 18,7 11 6 29 15 NNE 1020,4 60 60 0,0
15.09.2019 16:00:00 31,4 14,1 39,6 20,0 18,7 11 6 26 14 NNE 1021,0 60 60 0,0
15.09.2019 15:00:00 30,7 14,3 39,3 19,8 18,6 13 7 25 13 NE 1021,8 57 60 0,0
15.09.2019 14:00:00 29,8 14,7 36,1 19,6 18,6 10 6 27 14 NNE 1022,3 20 60 0,0
15.09.2019 13:00:00 28,2 15,1 34,2 19,6 18,6 15 8 28 15 NE 1023,1 41 60 0,0
15.09.2019 12:00:00 26,3 15,0 30,7 19,5 18,6 12 6 27 14 NE 1023,8 59 60 0,0
15.09.2019 11:00:00 23,7 14,9 25,2 19,6 18,6 10 6 16 8 N 1024,1 60 60 0,0
15.09.2019 10:00:00 20,5 13,9 19,9 19,7 18,6 9 5 18 10 NE 1024,4 51 60 0,0
15.09.2019 09:00:00 16,9 14,0 12,5 19,8 18,6 3 2 5 3 NNE 1024,2 42 60 0,0
15.09.2019 08:00:00 14,0 11,9 11,3 19,9 18,6 4 2 7 4 NNW 1024,3 57 2 0,0
15.09.2019 07:00:00 14,8 12,5 11,7 20,0 18,6 5 3 8 5 N 1023,8 60 0 0,0
15.09.2019 06:00:00 15,0 12,5 12,4 20,1 18,6 6 4 12 7 NNW 1023,8 60 0 0,0
15.09.2019 05:00:00 15,3 12,4 12,9 20,2 18,6 7 4 10 5 N 1024,0 60 0 0,0
15.09.2019 04:00:00 16,0 12,9 13,2 20,2 18,6 8 4 10 5 N 1024,3 60 0 0,0
15.09.2019 03:00:00 16,8 13,1 13,2 20,4 18,6 7 4 10 6 N 1024,6 60 0 0,0
15.09.2019 02:00:00 16,6 13,1 13,7 20,5 18,6 3 2 11 6 NNW 1024,8 60 0 0,0
15.09.2019 01:00:00 18,0 13,3 14,8 20,5 18,6 5 3 9 5 N 1024,8 60 0 0,0
15.09.2019 00:00:00 19,7 13,6 16,0 20,5 18,6 6 3 9 5 N 1024,9 60 0 0,0
14.09.2019 23:00:00 20,9 13,3 16,9 20,5 18,6 3 2 11 6 E 1025,2 60 0 0,0
14.09.2019 22:00:00 22,0 14,1 18,3 20,5 18,6 7 4 10 6 NNE 1025,2 60 0 0,0
14.09.2019 21:00:00 23,0 14,0 17,8 20,5 18,6 9 5 19 10 NNE 1025,0 60 0 0,0
14.09.2019 20:00:00 25,8 14,3 25,4 20,4 18,6 14 8 27 14 NNE 1024,5 60 50 0,0
14.09.2019 19:00:00 27,8 14,4 29,9 20,2 18,6 18 10 28 15 NE 1024,3 60 60 0,0
14.09.2019 18:00:00 28,8 14,6 32,3 20,0 18,6 18 10 29 16 NNE 1024,3 48 56 0,0
14.09.2019 17:00:00 28,8 14,6 32,7 19,8 18,6 19 10 35 19 NNE 1024,4 54 24 0,0
14.09.2019 16:00:00 29,4 14,8 36,2 19,7 18,6 14 7 31 17 NE 1024,9 60 60 0,0
14.09.2019 15:00:00 28,5 14,7 35,2 19,5 18,6 14 7 33 18 ENE 1025,3 55 60 0,0
14.09.2019 14:00:00 27,7 14,7 33,5 19,3 18,6 16 9 29 16 ENE 1026,0 54 60 0,0
14.09.2019 13:00:00 26,3 14,7 32,8 19,3 18,6 18 10 29 16 NNE 1026,4 58 60 0,0
14.09.2019 12:00:00 24,2 15,1 26,4 19,2 18,6 15 8 29 16 NNE 1027,2 60 60 0,0
14.09.2019 11:00:00 21,0 14,2 23,1 19,3 18,6 17 9 27 15 NE 1027,7 60 60 0,0
14.09.2019 10:00:00 19,4 14,4 19,1 19,3 18,6 14 8 22 12 NE 1028,2 50 60 0,0
14.09.2019 09:00:00 17,0 14,3 15,4 19,4 18,6 14 8 25 13 NE 1028,1 54 25 0,0
14.09.2019 08:00:00 15,5 13,7 14,8 19,5 18,6 16 9 22 12 NNE 1028,1 60 0 0,0
14.09.2019 07:00:00 15,7 13,7 15,1 19,6 18,6 14 7 19 10 NNE 1027,7 60 0 0,0
14.09.2019 06:00:00 16,0 13,8 14,6 19,6 18,6 13 7 20 11 NNE 1027,7 60 0 0,0
14.09.2019 05:00:00 16,5 13,6 15,3 19,7 18,6 11 6 18 10 NE 1027,7 60 0 0,0
14.09.2019 04:00:00 17,4 13,5 16,2 19,8 18,6 10 6 22 12 NNE 1028,2 60 0 0,0
14.09.2019 03:00:00 18,3 13,6 17,3 19,8 18,5 12 6 23 12 NE 1028,3 60 0 0,0
14.09.2019 02:00:00 18,9 13,5 17,5 19,8 18,5 10 6 22 12 NNE 1028,5 60 0 0,0
14.09.2019 01:00:00 20,5 13,9 19,6 19,9 18,6 14 8 24 13 NE 1028,3 60 0 0,0
14.09.2019 00:00:00 21,2 14,4 20,2 19,9 18,5 15 8 24 13 NE 1028,4 60 0 0,0
13.09.2019 23:00:00 21,8 14,4 20,5 19,9 18,6 14 8 22 12 NNE 1028,4 60 0 0,0
13.09.2019 22:00:00 23,2 14,5 22,1 19,9 18,6 17 9 28 15 NNE 1028,1 60 0 0,0
13.09.2019 21:00:00 23,9 14,6 22,6 19,8 18,6 16 9 31 17 NNE 1027,7 60 0 0,0
13.09.2019 20:00:00 26,9 14,0 26,5 19,7 18,5 18 10 29 16 NNE 1027,6 60 52 0,0
13.09.2019 19:00:00 28,8 13,9 30,7 19,5 18,6 16 9 35 19 NE 1027,7 60 60 0,0
13.09.2019 18:00:00 29,7 13,5 33,4 19,3 18,6 22 12 40 21 NE 1027,2 34 60 0,0
13.09.2019 17:00:00 30,0 13,3 35,2 19,1 18,6 18 10 37 20 NE 1027,6 33 60 0,0
13.09.2019 16:00:00 30,0 12,9 36,4 18,9 18,5 19 11 36 19 NNE 1028,3 32 60 0,0
13.09.2019 15:00:00 29,0 13,2 35,8 18,7 18,6 18 10 39 21 NNE 1029,1 31 60 0,0
13.09.2019 14:00:00 27,5 14,5 33,9 18,6 18,6 23 12 36 20 NNE 1029,6 30 60 0,0
13.09.2019 13:00:00 25,7 14,8 31,5 18,5 18,6 20 11 30 16 NNE 1030,1 33 60 0,0
13.09.2019 12:00:00 24,1 15,0 28,0 18,4 18,6 15 8 26 14 NNE 1030,7 40 60 0,0
13.09.2019 11:00:00 21,3 15,2 22,7 18,5 18,6 13 7 24 13 N 1031,1 19 60 0,0
13.09.2019 10:00:00 18,5 15,4 17,4 18,6 18,6 14 7 21 12 N 1031,5 46 60 0,0
13.09.2019 09:00:00 15,5 14,7 12,4 18,7 18,5 8 5 13 7 N 1031,5 20 60 0,0
13.09.2019 08:00:00 13,2 12,7 10,4 18,8 18,6 7 4 9 5 NNW 1031,6 20 5 0,0
13.09.2019 07:00:00 13,0 12,2 11,0 18,9 18,6 7 4 13 7 NW 1031,3 34 0 0,0
13.09.2019 06:00:00 13,3 12,4 11,7 19,0 18,6 7 4 12 7 NW 1031,0 44 0 0,0
13.09.2019 05:00:00 14,0 12,9 12,6 19,1 18,6 9 5 14 7 NNW 1031,2 53 0 0,0
13.09.2019 04:00:00 14,4 13,1 11,1 19,1 18,6 11 6 15 8 NNW 1031,6 60 0 0,0
13.09.2019 03:00:00 14,4 12,6 11,2 19,2 18,6 8 4 12 7 NNW 1031,7 60 0 0,0
13.09.2019 02:00:00 15,2 12,9 11,1 19,3 18,6 6 3 14 7 NW 1031,6 60 0 0,0
13.09.2019 01:00:00 15,4 12,9 13,6 19,3 18,6 11 6 15 8 NNE 1031,1 60 0 0,0
13.09.2019 00:00:00 16,4 13,1 14,9 19,4 18,6 10 6 15 8 NNE 1031,5 60 0 0,0
12.09.2019 23:00:00 17,0 13,3 15,5 19,4 18,6 12 6 15 8 N 1031,7 60 0 0,0
12.09.2019 22:00:00 19,8 14,2 17,2 19,3 18,6 10 6 18 10 N 1031,2 60 0 0,0
12.09.2019 21:00:00 20,4 13,6 17,9 19,2 18,6 9 5 15 8 N 1030,8 60 0 0,0
12.09.2019 20:00:00 23,6 14,0 23,4 19,1 18,6 9 5 25 13 N 1030,5 60 54 0,0
12.09.2019 19:00:00 25,2 14,3 28,4 18,9 18,6 14 8 24 13 NNW 1030,3 19 60 0,0
12.09.2019 18:00:00 25,7 14,2 31,1 18,7 18,6 13 7 24 13 NW 1030,4 60 60 0,0
12.09.2019 17:00:00 26,0 14,5 32,0 18,4 18,6 13 7 24 13 NNW 1030,7 60 58 0,0
12.09.2019 16:00:00 25,4 13,9 34,1 18,2 18,6 9 5 21 11 N 1031,3 52 60 0,0
12.09.2019 15:00:00 25,0 13,9 32,6 18,0 18,6 8 4 23 12 NNW 1031,8 46 60 0,0
12.09.2019 14:00:00 23,4 13,8 30,9 17,8 18,6 9 5 21 11 NNW 1032,2 47 60 0,0
12.09.2019 13:00:00 22,0 13,9 29,2 17,7 18,6 6 3 17 9 NW 1032,5 47 60 0,0
12.09.2019 12:00:00 19,4 14,4 21,5 17,7 18,7 6 3 12 6 NNE 1032,9 37 60 0,0
12.09.2019 11:00:00 15,0 14,8 15,2 17,7 18,6 5 3 16 9 NNW 1033,1 13 7 0,0
12.09.2019 10:00:00 13,4 13,2 14,1 17,8 18,7 8 4 19 10 NNW 1032,4 0,2 0 0,0
12.09.2019 09:00:00 13,0 12,8 9,6 17,9 18,7 4 2 7 4 NW 1031,9 0,3 13 0,2
12.09.2019 08:00:00 10,9 10,4 8,2 18,0 18,6 2 1 9 5 WSW 1031,4 0,2 0 0,0
12.09.2019 07:00:00 11,3 10,7 8,5 18,1 18,7 5 3 10 6 NNW 1030,9 3,1 0 0,0
12.09.2019 06:00:00 11,8 11,2 9,8 18,2 18,7 8 4 15 8 NW 1030,6 11 0 0,0
12.09.2019 05:00:00 12,2 11,4 8,6 18,3 18,7 12 6 15 8 NW 1030,6 18 0 0,0
12.09.2019 04:00:00 12,4 11,1 8,7 18,4 18,7 5 3 11 6 WNW 1030,6 33 0 0,0
12.09.2019 03:00:00 13,0 11,4 10,9 18,4 18,7 9 5 12 6 NW 1030,5 48 0 0,0
12.09.2019 02:00:00 13,6 11,1 11,8 18,5 18,7 10 5 14 8 NW 1030,3 60 0 0,0
12.09.2019 01:00:00 13,7 9,5 11,8 18,6 18,7 10 5 16 8 WNW 1029,9 60 0 0,0
12.09.2019 00:00:00 14,6 7,6 11,6 18,7 18,7 8 5 12 6 WNW 1029,7 60 0 0,0
11.09.2019 23:00:00 16,3 7,8 12,9 18,7 18,7 8 5 11 6 WNW 1028,9 60 0 0,0
11.09.2019 22:00:00 17,7 9,1 14,5 18,7 18,7 7 4 14 8 WNW 1028,4 60 0 0,0
11.09.2019 21:00:00 19,6 8,9 15,6 18,6 18,7 6 3 15 8 NW 1027,8 60 0 0,0
11.09.2019 20:00:00 22,2 9,0 21,1 18,4 18,7 12 6 22 12 NW 1027,0 46 53 0,0
11.09.2019 19:00:00 23,8 8,6 26,0 18,3 18,7 15 8 25 13 WNW 1026,6 59 60 0,0
11.09.2019 18:00:00 24,3 8,3 29,2 18,1 18,7 15 8 31 17 W 1026,4 60 60 0,0
11.09.2019 17:00:00 24,2 7,8 28,5 17,9 18,7 11 6 28 15 W 1026,2 60 49 0,0
11.09.2019 16:00:00 24,0 8,4 29,2 17,7 18,7 13 7 26 14 WNW 1026,3 46 57 0,0
11.09.2019 15:00:00 23,0 8,3 28,2 17,5 18,7 11 6 21 11 NW 1026,6 17 33 0,0
11.09.2019 14:00:00 22,2 7,6 28,3 17,4 18,8 9 5 21 12 NW 1026,9 60 45 0,0
11.09.2019 13:00:00 21,6 9,2 25,7 17,3 18,8 6 3 16 9 NNE 1026,8 19 60 0,0
11.09.2019 12:00:00 17,5 9,9 20,4 17,3 18,8 4 2 10 6 NW 1027,2 28 11 0,0
11.09.2019 11:00:00 15,6 10,1 16,2 17,3 18,8 5 3 14 7 N 1027,2 20 17 0,0
11.09.2019 10:00:00 13,2 10,7 13,2 17,4 18,8 9 5 19 10 NNW 1026,9 20 10 0,0
11.09.2019 09:00:00 11,5 10,1 9,6 17,5 18,8 6 4 16 8 NNW 1026,0 17 43 0,0
11.09.2019 08:00:00 9,8 9,2 6,4 17,7 18,8 9 5 12 7 NW 1025,6 12 7 0,0
11.09.2019 07:00:00 9,4 8,5 8,0 17,8 18,8 9 5 19 11 NNW 1024,9 16 0 0,0
11.09.2019 06:00:00 9,4 8,0 7,7 17,8 18,8 12 7 18 10 NW 1024,4 33 0 0,0
11.09.2019 05:00:00 9,4 7,2 7,4 18,0 18,8 10 5 18 10 NW 1024,0 58 0 0,0
11.09.2019 04:00:00 10,4 7,3 8,8 18,1 18,8 11 6 18 10 NW 1023,6 60 0 0,0
11.09.2019 03:00:00 11,3 6,8 9,8 18,2 18,8 14 7 19 10 NW 1023,8 60 0 0,0
11.09.2019 02:00:00 11,7 6,4 8,9 18,3 18,8 15 8 20 11 NW 1023,4 60 0 0,0
11.09.2019 01:00:00 12,2 6,2 9,3 18,4 18,8 10 6 16 8 NW 1022,9 60 0 0,0
11.09.2019 00:00:00 13,2 6,1 8,7 18,4 18,8 8 5 13 7 NW 1022,5 60 0 0,0
10.09.2019 23:00:00 14,4 5,7 11,9 18,5 18,9 10 6 15 8 NNW 1021,9 60 0 0,0
10.09.2019 22:00:00 15,8 6,0 12,8 18,5 18,9 10 5 16 9 NNW 1021,1 60 0 0,0
10.09.2019 21:00:00 17,5 6,1 15,0 18,5 18,9 12 6 22 12 N 1020,2 60 0 0,0
10.09.2019 20:00:00 20,1 5,7 19,8 18,4 18,9 18 10 30 16 N 1019,3 27 58 0,0
10.09.2019 19:00:00 22,1 5,1 24,9 18,3 18,9 21 11 35 19 N 1018,2 60 60 0,0
10.09.2019 18:00:00 22,9 4,4 26,7 18,1 18,9 20 11 43 23 NNE 1017,8 60 60 0,0
10.09.2019 17:00:00 23,2 4,7 29,4 18,0 18,9 24 13 39 21 N 1017,3 60 60 0,0
10.09.2019 16:00:00 23,3 5,2 29,3 17,8 18,9 16 9 32 18 NE 1017,1 42 60 0,0
10.09.2019 15:00:00 22,2 5,6 28,4 17,7 18,9 18 10 35 19 NE 1017,2 18 60 0,0
10.09.2019 14:00:00 21,1 7,0 27,2 17,6 18,9 18 10 32 18 NE 1016,9 20 60 0,0
10.09.2019 13:00:00 19,7 9,3 22,6 17,6 18,9 16 9 31 17 NNE 1016,8 44 60 0,0
10.09.2019 12:00:00 16,4 8,9 14,5 17,6 19,0 17 9 30 16 NE 1016,7 49 27 0,0
10.09.2019 11:00:00 13,0 8,5 13,3 17,7 18,9 16 9 26 14 NNE 1016,4 58 0 0,0
10.09.2019 10:00:00 12,3 9,5 12,1 17,7 19,0 11 6 17 9 NNE 1015,4 53 0 0,0
10.09.2019 09:00:00 11,9 10,0 11,4 17,8 19,0 9 5 16 9 NNE 1014,3 3,0 0 0,0
10.09.2019 08:00:00 11,4 9,3 10,9 17,9 19,0 7 4 20 11 ENE 1013,8 58 0 0,0
10.09.2019 07:00:00 11,2 9,9 10,8 17,9 19,0 13 7 22 12 NE 1012,8 45 0 0,0
10.09.2019 06:00:00 11,2 10,3 10,4 18,0 19,0 9 5 14 7 NNE 1012,0 31 0 0,0
10.09.2019 05:00:00 11,4 9,8 10,9 18,0 19,0 5 3 14 7 SSE 1011,6 45 0 0,0

tt = temperature
td = dewpoint
tt 5cm = temperature 5cm
tt -20cm = temperature -20cm
tt -100cm = temperature -100cm
ff = wind speed
fx = gusts
dd = wind direction
ppp = reduced air pressure
vv = visibility
sd = sunshine duration
rr = precipitation

Next stations